Weather History for Greenville, AL

Change the Weather History Date:

Sunday, December 14, 2014

  Actual Average Record
Temperature  
Mean Temperature 50 °F -  
Max Temperature 63 °F 62 °F 80 °F (1984)
Min Temperature 34 °F 40 °F 19 °F (2010)
Degree Days  
Heating Degree Days 15    
Moisture  
Dew Point 38 °F    
Average Humidity 73    
Maximum Humidity 92    
Minimum Humidity 41    
Precipitation  
Precipitation 0.00 in - - ()
Sea Level Pressure  
Sea Level Pressure 30.11 in    
Wind  
Wind Speed 5 mph (NNW)    
Max Wind Speed 10 mph    
Max Gust Speed 21 mph    
Visibility 9 miles    
Events      
Averages and records for this station are not official NWS values.
T = Trace of Precipitation, MM = Missing Value Source: NWS Daily Summary

Daily Weather History Graph

Daily Weather History Graph

Search for Another Location

Airport:

Trip Planner

Search our weather history database for the weather conditions in past years. The results will help you decide how hot, cold, wet, or windy it might be!

Date:

Astronomy

Dec. 14, 2014 Rise Set
Actual Time 6:38 AM CST 4:43 PM CST
Civil Twilight 6:11 AM CST 5:10 PM CST
Nautical Twilight 5:41 AM CST 5:41 PM CST
Astronomical Twilight 5:11 AM CST 6:10 PM CST
Moon No Moon Rise 11:51 AM CST (12/14)
Length of Visible Light 10h 59m
Length of Day
10h 05m
Waning Gibbous, 48% of the Moon is Illuminated
Dec 14
Waning Gibbous
Dec 21
New
Dec 28
First Quarter
Jan 4
Full
Jan 13
Last Quarter

Hourly Weather History & Observations

Time (CST) Temp. Windchill Dew Point Humidity Pressure Visibility Wind Dir Wind Speed Gust Speed Precip Events Conditions
12:56 AM 43.0 °F 38.8 °F 39.0 °F 86% 30.15 in 10.0 mi North 6.9 mph - N/A   Clear
1:56 AM 43.0 °F 40.3 °F 39.0 °F 86% 30.15 in 10.0 mi NNE 4.6 mph - N/A   Clear
2:56 AM 42.1 °F 38.4 °F 37.9 °F 85% 30.14 in 10.0 mi North 5.8 mph - N/A   Clear
3:56 AM 42.1 °F 38.4 °F 37.9 °F 85% 30.13 in 10.0 mi North 5.8 mph - N/A   Clear
4:56 AM 42.1 °F 37.7 °F 37.0 °F 82% 30.14 in 10.0 mi North 6.9 mph - N/A   Clear
5:56 AM 39.9 °F 35.8 °F 36.0 °F 86% 30.15 in 9.0 mi North 5.8 mph - N/A   Clear
6:56 AM 39.9 °F 34.5 °F 36.0 °F 86% 30.15 in 7.0 mi North 8.1 mph - N/A   Clear
7:56 AM 42.1 °F 37.1 °F 37.0 °F 82% 30.17 in 8.0 mi North 8.1 mph - N/A   Clear
8:56 AM 45.0 °F 40.1 °F 36.0 °F 71% 30.18 in 9.0 mi North 9.2 mph 20.7 mph N/A   Clear
9:56 AM 48.9 °F - 36.0 °F 61% 30.19 in 10.0 mi Variable 5.8 mph - N/A   Clear
11:56 AM 57.0 °F - 39.0 °F 51% 30.12 in 10.0 mi NNW 5.8 mph - N/A   Clear
12:56 PM 61.0 °F - 39.0 °F 44% 30.09 in 10.0 mi North 10.4 mph - N/A   Clear
1:56 PM 62.1 °F - 39.0 °F 43% 30.08 in 10.0 mi Variable 3.5 mph - N/A   Clear
2:56 PM 63.0 °F - 39.0 °F 41% 30.06 in 10.0 mi Calm Calm - N/A   Clear
3:56 PM 62.1 °F - 39.9 °F 44% 30.06 in 10.0 mi WNW 3.5 mph - N/A   Clear
4:56 PM 57.9 °F - 41.0 °F 53% 30.07 in 10.0 mi NW 3.5 mph - N/A   Clear
5:56 PM 50.0 °F - 41.0 °F 71% 30.08 in 10.0 mi Calm Calm - N/A   Clear
6:56 PM 46.9 °F - 39.9 °F 77% 30.09 in 10.0 mi North 3.5 mph - N/A   Clear
7:56 PM 43.0 °F - 37.9 °F 82% 30.09 in 10.0 mi Calm Calm - N/A   Clear
8:56 PM 41.0 °F 38.0 °F 37.0 °F 86% 30.09 in 9.0 mi North 4.6 mph - N/A   Clear
9:56 PM 39.0 °F - 35.1 °F 86% 30.09 in 9.0 mi Calm Calm - N/A   Clear
10:56 PM 37.9 °F - 35.1 °F 89% 30.08 in 8.0 mi Calm Calm - N/A   Clear
11:56 PM 34.0 °F 31.0 °F 32.0 °F 92% 30.09 in 8.0 mi West 3.5 mph - N/A   Clear